OBJECT B, 67747

Orbit data source: Space-Track

You're viewing an Uncataloged Satellite

Recently launched and/or uncataloged satellites may have evolving metadata. Metadata may include but not limited to: Owner, Maufacturer, Bus, Motor, and Mission.

OBJECT B, 67747 is a Chinese satellite in SSO that was launched on Thu, 12 Feb 2026 UTC via a JIELONG-3 launch vehicle from the South China Sea Launch Area (SCSLA). Unknown objects in Earth's orbit typically refer to objects detected orbiting the Earth but have not yet been identified or cataloged. These objects could be anything from previously untracked satellites, spent rocket stages, debris from satellite collisions, or even natural meteoroids temporarily captured by Earth's gravity.

Loading next visibility...
Identifier
67747, 2026-027B
Orbit
SSO
Country
Flag of CNCN / PRC
Related business
None
Manufacturer
Unknown
Mission
Operational Amateur Technology
Bus & Motor
Unknown
Mass
Unknown
Launch date (UTC)
2026-02-12 (4 months ago)
Launch vehicle
JIELONG-3
Launch site
South China Sea Launch Area (SCSLA)
Object type
Unknown
Shape & HBR
Box, 1.6 m
Radar Cross Section
0.080 m², Medium (>0.1 m² and < 1m²)

Expand to show TLE details & history
Last TLE update: 6 hours ago

TLE from 6 hours ago
0 OBJECT B
1 67747U 26027B   26164.84080926  .00007182  00000-0  34425-3 0  9993
2 67747  97.5053 293.0540 0009216 222.6627 137.3892 15.19186566 18459
Epoch: 2026-06-13T20:10Z
TLE epoch observation values (Epoch: 2026-06-13T20:10:45.920Z)
Latitude
-0.00005°
Longitude
88.21255°
Altitude
516.059 km
Speed
7.603 km/s
True Right ascension
19h 32m 12s
True Declination
0° 00' 00"
Sunlit
Object was in full shadow at epoch
Visualization orbit readout
Latitude
Unknown
Longitude
Unknown
Altitude
Unknown
Speed
Unknown
Apparent Right ascension
Unknown
Apparent Declination
Unknown
Sunlit
N/A
Visualization observer readout
Local Sidereal Time
12:58:28
Azimuth
Unknown
Elevation
Unknown
Doppler factor
Unknown
Orbital elements
Apogee altitude
511.613 km
Perigee altitude
498.925 km
Semi-major axis
6,883.406 km
Eccentricity
0.00092
Inclination
97.5053°
RAAN
293.054°
Arg. of periapsis
222.6627°
True anomaly
137.46064°
Mean anomaly
137.3892°
Eccentric anomaly
137.42492°
Mean motion
3.80048 °/min
Orbital period
94.72 mins
BSTAR
0.00034425
Loading maneuver chart data...
Computing Atmospheric mass density...
Loading historical data...
Loading historical data...
Loading historical data...
Loading historical data...
Loading historical data...
Loading historical data...
Loading historical data...

Documentation

Showing up to 5 results
|